Other Public Products
Issued by NWS Charleston, SC

Current Version | Previous Version | Graphics & Text | Print | Product List | Glossary On
Versions: 1 2 3 4 5 6 7 8 9 10 11 12 13 14 15 16 17 18 19 20 21 22 23 24 25 26 27 28 29 30 31 32 33 34 35 36 37 38 39 40 41 42 43 44 45 46 47 48 49 50
000 FPUS82 KCHS 231527 OPUCHS TEST...KCHS/KSAV Gateway Observations...TEST National Weather Service Charleston SC 1000 AM EST FRI FEB 23 2018 NOTE: "fair" indicates few or no clouds below 12,000 feet with no significant weather and/or obstructions to visibility. SCZ050-WAZ558-NCZ071-TXZ119-213-PAZ071-DCZ001-FLZ074-172-MI076- NYZ176-178-MAZ016-IL014-TNZ027-NJZ106-GAZ044-MD014-231600- ...Gateway Observations for Charleston International... CITY SKY/WX TMP DP RH WIND PRES REMARKS Chas Airport FAIR 74 65 73 E6 30.45S Seattle MOCLDY 25 17 72 SE8 30.44F WCI 16 Charlotte FAIR 67 62 84 S5 30.45S Dallas DFW CLOUDY 44 41 89 E7 30.18F FOG Dallas Love CLOUDY 43 41 93 E5 30.21S Philladelphia LGT RAIN 38 37 97 E7 30.60F WCI 33 Wash National CLOUDY 42 40 92 E6 30.58F Baltimore CLOUDY 41 40 96 E6 30.56F FOG Miami FAIR 78 66 66 E16 30.34S Detroit LGT RAIN 40 39 97 S6 30.12F FOG WCI 36 Newark LGT RAIN 38 34 85 NE5 30.62F WCI 34 Laguardia LGT RAIN 37 32 82 NE9 30.63F WCI 30 J F K RAIN 37 34 89 E6 30.64F FOG WCI 32 Boston Logan PTSUNNY 38 30 73 E6 30.67F WCI 33 Ft. Lauderdale FAIR 79 68 69 E18 30.33S Chicago O`Hare DRIZZLE 44 41 89 W13G20 30.09R FOG Chicago Midway CLOUDY 44 43 96 SW12 30.10R FOG Houston Bush FOG 63 63 100 VRB3 30.21R VSB 1/8 Houston Hobby PTSUNNY 72 71 97 SE8 30.19S Nashville PTSUNNY 69 61 75 SW14G21 30.34R Atlanta FOG 63 63 100 S8 30.42S VSB 1/2 $$ GAZ044-118-TXZ119-213-NCZ071-DCZ001-MDZ014-506-PAZ021-071-NJZ106- NYZ176-178-MAZ106-OHZ011-021-055-MIZ076-KYZ091-ILZ014-INZ047- MNZ060-ONZ431-231600- ...Gateway Observations for Savannah International... CITY SKY/WX TMP DP RH WIND PRES REMARKS Savannah Arpt FAIR 73 66 78 CALM 30.44F Atlanta FOG 63 63 100 S8 30.42S VSB 1/2 Charlotte FAIR 67 62 84 S5 30.45S Dallas DFW CLOUDY 44 41 89 E7 30.18F FOG Houston Bush FOG 63 63 100 VRB3 30.21R VSB 1/8 Wash National CLOUDY 42 40 92 E6 30.58F Wash Dulles CLOUDY 41 41 100 E5 30.56F FOG Baltimore CLOUDY 41 40 96 E6 30.56F FOG Philadelphia LGT RAIN 38 37 97 E7 30.60F WCI 33 Newark LGT RAIN 38 34 85 NE5 30.62F WCI 34 Laguardia LGT RAIN 37 32 82 NE9 30.63F WCI 30 J F K RAIN 37 34 89 E6 30.64F FOG WCI 32 Boston PTSUNNY 38 30 73 E6 30.67F WCI 33 Pittsburg CLOUDY 48 46 93 SE7 30.24F Akron LGT RAIN 50 47 89 S8 30.17F VSB 1 Cleveland CLOUDY 49 47 93 S15 30.16F Cincinnati LGT RAIN 59 58 96 SW14G22 30.22R FOG Columbus CLOUDY 51 51 100 S13G21 30.21S Detroit LGT RAIN 40 39 97 S6 30.12F FOG WCI 36 Chicago O`Hare DRIZZLE 44 41 89 W13G20 30.09R FOG Minneapolis CLOUDY 26 24 92 NW13 30.11R WCI 15 Indianapolis CLOUDY 53 53 100 W14 30.20R Toronto Canada DRIZZLE 34 32 93 E9 30.22F WCI 26 $$

USA.gov is the U.S. government's official web portal to all federal, state and local government web resources and services.